Probability
0 0 0 0 0 0 0 0 0 0 0 0 0 0 0 0 0 0 0 0 0 0 0 0 0 0 0 0 0 0 0 0 0 0 0 0 0 0 0 0 0 0 0 0
0 0 0 0 0 0 0 0 0 0 0 0 0 0 0 0 0 0 0 0 0 0 0 0 0 0 0 0 0 0 0 0 0 0 0 0 0 0 0 0 0 0 0 0
0 0 0 0 0 0 0 0 0 0 0 0 0 0 0 0 0 0 0 0 0 0 0 0 0 0 0 0 0 0 0 0 0 0 0 0 0 0 0 0 0 0 0 0
0 0 0 0 0 0 0 0 0 0 0 0 0 0 0 0 0 0 0 0 0 0 0 0 0 0 0 0 0 0 0 0 0 0 0 0 0 0 0 0 0 0 0 0
0 0 0 0 0 0 0 0 0 0 0 0 0 0 0 0 0 0 0 0 0 0 0 0 0 0 0 0 0 0 0 0 0 0 0 0 0 0 0 0 0 0 0 0
0 0 0 0 0 0 0 0 0 0 0 0 0 0 0 0 0 0 0 0 0 0 0 0 0 0 0 0 0 0 0 0 0 0 0 0 0 0 0 0 0 0 0 0
0 0 0 0 0 0 0 0 0 0 0 0 0 0 0 0 0 0 0 0 0 0 0 0 0 0 0 0 0 0 0 0 0 0 0 0 0 0 0 0 0 0 0 0
0 0 0 0 0 0 0 0 0 0 0 0 0 0 0 0 0 0 0 0 0 0 0 0 0 0 0 0 0 0 0 0 0 0 0 0 0 0 0 0 0 0 0 0
0 0 0 0 0 0 0 0 0 0 0 0 0 0 0 0 0 0 0 0 0 0 0 0 0 0 0 0 0 0 0 0 0 0 0 0 0 0 0 0 0 0 0 0
0 0 0 0 0 0 0 0 0 0 0 0 0 0 0 0 0 0 0 0 0 0 0 0 0 0 0 0 0 0 0 0 0 0 0 0 0 0 0 0 0 0 0 0
0 0 0 0 0 0 0 0 0 0 0 0 0 0 0 0 0 0 0 0 0 0 0 0 0 0 0 0 0 0 0 0 0 0 0 0 0 0 0 0 0 0 0 0
0 0 0 0 0 0 0 0 0 0 0 0 0 0 0 0 0 0 0 0 0 0 0 0 0 0 0 0 0 0 0 0 0 0 0 0 0 0 0 0 0 0 0 0
0 0 0 0 0 0 0 0 0 0 0 0 0 0 0 0 0 0 0 0 0 0 0 0 0 0 0 0 0 0 0 0 0 0 0 0 0 0 0 0 0 0 0 0
0 0 0 0 0 0 0 0 0 0 0 0 0 0 0 0 0 0 0 0 0 0 0 0 0 0 0 0 0 0 0 0 0 0 0 0 0 0 0 0 0 0 0 0
0 0 0 0 0 0 0 0 0 0 0 0 0 0 0 0 0 0 0 0 0 0 0 0 0 0 0 0 0 0 0 0 0 0 0 0 0 0 0 0 0 0 0 0
0 0 0 0 0 0 0 0 0 0 0 0 0 0 0 0 0 0 0 0 0 0 0 0 0 0 0 0 0 0 0 0 0 0 0 0 0 0 0 0 0 0 0 0
0 0 0 0 0 0 0 0 0 0 0 0 0 0 0 0 0 0 0 0 0 0 0 0 0 0 0 0 0 0 0 0 0 0 0 0 0 0 0 0 0 0 0 0
0 0 0 0 0 0 0 0 0 0 0 0 0 0 0 0 0 0 0 0 0 0 0 0 0 0 0 0 0 0 0 0 0 0 0 0 0 0 0 0 0 0 0 0
0 0 0 0 0 0 0 0 0 0 0 0 0 0 0 0 0 0 0 0 0 0 0 0 0 0 0 0 0 0 0 0 0 0 0 0 0 0 0 0 0 0 0 0
0 0 0 0 0 0 0 0 0 0 0 0 0 0 0 0 0 0 0 0 0 0 0 0 0 0 0 0 0 0 0 0 0 0 0 0 0 0 0 0 0 0 0 0
0 0 0 0 0 0 0 0 0 0 0 0 0 0 0 0 0 0 0 0 0 0 0 0 0 0 0 0 0 0 0 0 0 0 0 0 0 0 0 0 0 0 0 0
0 0 0 0 0 0 0 0 0 0 0 0 0 0 0 0 0 0 0 0 0 0 0 0 0 0 0 0 0 0 0 0 0 0 0 0 0 0 0 0 0 0 0 0
0 0 0 0 0 0 0 0 0 0 0 0 0 0 0 0 0 0 0 0 0 0 0 0 0 0 0 0 0 0 0 0 0 0 0 0 0 0 0 0 0 0 0 0
0 0 0 0 0 0 0 0 0 0 0 0 0 0 0 0 0 0 0 0 0 0 0 0 0 0 0 0 0 0 0 0 0 0 0 0 0 0 0 0 0 0 0 0
0 0 0 0 0 0 0 0 0 0 0 0 0 0 0 0 0 0 0 0 0 0 0 0 0 0 0 0 0 0 0 0 0 0 0 0 0 0 0 0 0 0 0 0
0 0 0 0 0 0 0 0 0 0 0 0 0 0 0 0 0 0 0 0 0 0 0 0 0 0 0 0 0 0 0 0 0 0 0 0 0 0 0 0 0 0 0 0
Wind_Speed
6 4 7 9 11 11 10 11 13 12 11 11 11 11 8 8 12 14 9 3 7 12 14 16 16 15 15 15 15 13 11 7 4 2 1 1 1 1 1 2 3 5 5 6
4 10 12 9 8 7 7 10 12 11 8 7 8 11 11 12 13 9 3 6 10 12 15 16 16 14 14 14 13 13 13 11 7 4 2 2 1 1 0 1 2 3 4 5
10 5 2 4 7 8 10 10 9 9 8 6 9 9 9 6 3 6 9 12 14 14 14 13 14 13 13 14 13 13 14 13 11 8 5 4 4 3 3 2 1 1 3 4
8 4 2 5 8 8 9 5 5 5 5 4 3 7 5 8 2 6 10 12 12 12 12 12 12 13 13 12 11 12 13 14 13 10 8 6 4 3 3 2 1 0 2 3
4 5 3 5 5 5 4 1 3 5 6 6 6 9 7 7 6 7 10 11 10 10 10 10 11 10 10 10 10 10 11 13 13 12 11 8 6 4 4 4 4 2 1 2
6 1 3 3 0 1 3 4 7 7 3 5 6 6 5 1 8 10 9 10 9 8 9 8 8 8 8 9 9 10 11 12 12 12 11 10 9 7 6 6 5 3 2 2
6 6 4 1 1 2 2 1 3 3 3 6 2 3 5 2 8 12 13 10 8 8 7 6 6 7 7 8 9 9 10 11 11 11 10 10 10 9 8 6 6 5 3 2
4 4 7 5 4 1 3 2 3 4 5 4 5 7 4 5 9 13 12 10 8 7 6 5 5 5 5 7 7 8 8 9 10 9 9 9 9 7 6 7 6 6 5 5
4 2 4 3 1 1 1 3 2 3 4 5 7 6 1 5 9 10 10 9 7 6 5 4 4 4 5 5 6 6 7 8 8 8 8 7 8 8 8 7 7 6 6 7
1 4 2 2 1 2 2 1 3 2 4 7 7 7 5 5 9 9 8 7 6 5 4 4 4 4 4 4 4 5 6 6 6 6 6 6 6 7 7 6 7 7 7 8
1 3 3 2 5 5 5 4 5 5 5 5 5 6 3 6 9 9 7 5 4 3 3 3 3 3 4 4 4 4 4 5 5 5 5 5 5 6 6 5 6 6 6 7
3 3 5 7 6 6 7 8 8 7 8 7 7 6 6 9 7 6 6 5 4 3 3 3 3 3 3 3 2 2 3 2 3 3 3 4 4 4 5 5 6 6 7 7
3 4 3 6 5 3 1 1 2 2 4 6 8 6 4 5 6 6 7 6 5 4 2 2 2 2 2 1 2 2 1 1 2 3 3 3 3 4 4 5 5 6 6 7
2 4 7 8 6 5 5 6 6 5 6 8 10 12 10 8 6 6 6 5 4 3 3 2 1 1 0 1 2 2 2 2 2 3 4 4 4 4 5 5 6 6 6 7
1 4 6 10 12 11 11 14 12 11 12 14 15 17 15 9 3 2 4 3 2 2 2 3 2 3 3 3 4 3 4 3 3 4 5 5 5 6 6 6 7 7 7 7
1 2 2 7 8 9 14 18 17 16 15 17 18 19 6 3 4 3 3 2 1 2 3 3 3 4 5 5 5 4 5 4 3 5 6 7 7 7 7 8 8 9 9 8
4 4 3 6 4 5 13 15 16 13 13 13 14 7 3 2 3 2 2 2 3 4 3 4 4 5 5 5 5 5 5 4 4 6 7 8 8 9 10 9 10 10 9 9
5 5 4 3 0 11 13 4 6 6 7 4 1 2 2 1 1 2 4 6 5 4 4 4 5 5 4 4 3 3 3 4 5 7 8 8 9 10 11 10 12 11 10 11
8 7 5 4 6 11 9 5 3 4 6 2 3 3 2 1 3 5 5 2 2 4 5 5 5 5 3 1 1 2 4 5 6 8 8 8 8 9 10 12 14 12 12 13
4 7 6 6 7 10 7 1 3 3 6 5 5 5 2 1 3 5 4 4 5 6 5 4 3 2 2 2 3 4 6 6 7 7 8 8 8 9 11 12 14 12 12 16
4 5 8 10 9 10 6 5 5 4 9 4 5 5 5 6 7 7 7 7 7 6 3 1 2 2 3 4 4 6 6 7 7 9 10 11 10 10 12 13 14 13 15 17
9 7 8 7 8 10 5 7 7 7 4 6 6 7 7 8 8 8 7 7 5 2 2 3 3 3 4 5 5 7 8 9 9 10 12 12 11 11 11 13 14 14 15 18
8 10 7 10 9 5 8 8 8 5 5 7 7 8 7 8 8 8 7 5 1 1 2 3 3 5 4 4 5 7 10 10 11 10 11 12 12 11 11 12 15 14 13 14
6 7 6 5 7 7 7 8 8 9 10 10 9 9 8 8 8 7 5 3 1 1 2 3 4 6 6 4 5 5 9 9 9 11 13 13 13 13 12 11 12 12 13 14
9 5 7 11 11 11 12 13 12 11 11 10 9 8 7 7 7 5 3 1 0 1 3 3 5 7 7 7 6 6 7 7 10 12 13 13 13 13 13 12 12 15 15 17
13 13 12 12 10 10 10 9 9 9 9 8 7 6 5 4 4 2 1 1 1 2 3 5 6 7 8 8 8 7 6 7 10 13 13 11 12 12 13 14 14 22 26 32
Wind_Direction
175 213 216 221 223 245 283 291 288 288 290 285 279 284 294 289 282 280 287 353 68 68 56 47 41 34 30 25 22 19 19 24 52 76 100 132 211 213 198 180 173 175 173 179
161 229 239 253 272 285 287 286 285 287 288 302 297 292 282 269 266 280 350 55 66 66 52 44 39 34 31 27 22 23 19 18 30 46 67 75 59 33 150 155 166 177 175 177
222 245 298 256 257 262 264 266 279 296 318 288 279 274 255 265 263 69 67 68 65 61 53 43 37 33 29 27 24 26 23 22 22 28 40 45 38 21 10 3 354 197 181 183
242 267 290 251 257 261 274 275 296 310 314 283 310 289 240 254 146 92 79 73 69 63 57 48 40 34 30 22 19 27 27 26 21 22 30 35 37 24 358 349 341 206 193 202
236 169 189 231 246 239 253 358 297 273 262 270 247 256 262 214 135 105 94 86 77 69 63 54 44 38 31 21 19 24 29 30 24 22 24 25 24 15 3 3 6 360 294 230
265 138 211 236 348 34 336 314 267 243 228 261 240 234 288 90 140 132 114 99 88 79 69 62 53 42 32 24 24 24 27 30 25 24 24 22 17 12 10 3 355 343 313 261
231 198 199 172 207 172 202 253 318 300 214 231 37 283 264 107 133 137 129 111 95 82 71 61 53 47 37 29 26 27 27 28 24 23 23 19 13 11 16 8 355 348 336 316
267 245 169 182 213 169 188 191 212 249 256 296 339 260 268 86 89 101 104 101 93 82 77 69 60 54 50 41 32 30 29 27 23 21 18 17 14 12 11 7 2 355 346 334
250 238 108 133 81 32 258 219 224 239 274 276 253 247 120 112 108 107 105 99 93 91 87 82 74 63 55 51 44 36 34 30 23 18 12 15 13 11 7 4 4 358 351 343
316 282 288 102 141 204 237 350 72 174 234 243 250 257 266 163 143 127 118 113 111 109 105 94 81 72 62 54 51 46 44 34 22 17 9 10 6 4 358 357 360 356 349 344
141 246 267 214 208 211 181 185 205 218 222 236 252 257 53 90 132 132 123 123 127 129 129 119 103 85 71 55 48 48 46 34 17 9 356 356 357 354 348 349 350 347 343 340
179 209 256 253 250 253 244 233 223 232 238 235 250 256 68 88 100 125 150 164 161 160 143 124 110 92 76 54 35 39 44 38 5 343 334 335 338 337 334 333 336 336 333 330
164 185 252 287 252 214 220 329 303 294 277 254 260 260 134 144 164 182 189 187 176 175 164 146 120 95 72 28 355 353 357 352 320 316 314 313 313 315 315 318 319 319 315 313
80 215 207 223 257 312 296 269 240 222 246 259 255 272 272 262 245 213 195 182 177 187 194 195 174 150 283 283 290 295 296 285 292 301 302 300 299 303 305 304 301 299 296 295
65 249 255 267 278 290 290 282 274 264 261 265 273 276 281 296 300 163 151 145 168 210 224 224 217 221 241 254 262 268 276 280 286 294 295 293 295 297 296 293 292 290 288 286
129 266 304 276 270 277 274 267 266 267 264 265 269 271 290 71 81 90 102 119 237 257 258 252 248 244 243 244 249 260 268 273 280 286 286 288 291 290 288 288 289 290 290 288
180 183 204 255 270 286 258 246 248 246 243 254 264 272 71 67 67 62 31 313 278 273 272 270 265 257 249 238 237 246 253 264 273 276 280 284 285 285 284 286 287 287 288 287
198 186 206 252 84 234 240 238 231 250 263 266 271 162 151 163 314 298 265 255 256 265 272 271 266 268 264 255 253 258 267 269 269 270 271 273 275 278 284 286 286 287 287 287
207 188 197 204 232 261 272 260 222 235 264 231 196 180 158 321 320 285 271 255 267 270 264 259 257 262 274 303 331 310 288 278 274 272 274 279 283 286 289 289 289 291 291 289
198 200 204 209 222 237 237 151 77 59 276 228 179 177 191 288 281 269 301 311 291 275 263 260 273 311 6 9 355 316 294 289 286 294 303 308 309 306 302 299 298 297 293 289
164 192 211 223 234 250 241 159 124 194 250 195 168 192 217 228 231 256 277 275 267 264 269 337 18 20 18 10 353 316 306 305 317 324 319 316 317 313 305 301 298 296 293 290
176 188 203 199 218 246 190 149 190 217 182 188 206 220 233 247 261 270 272 269 271 296 29 39 18 357 5 10 354 322 315 324 330 326 320 315 309 303 300 296 293 291 288 286
207 204 197 195 210 215 178 194 217 222 225 234 239 249 253 262 268 270 272 277 301 51 43 36 10 332 334 6 1 323 321 328 325 320 309 303 299 294 291 288 290 288 284 281
230 226 231 250 248 250 237 234 236 238 243 249 251 256 257 259 263 267 269 279 326 43 33 15 345 316 314 337 336 319 320 324 316 307 305 303 301 297 292 287 287 286 284 283
224 222 225 237 243 254 254 251 251 253 252 253 253 249 246 250 255 256 257 256 343 359 6 345 319 307 310 322 320 317 316 314 307 304 303 302 299 296 295 290 284 284 277 276
232 235 239 245 240 240 245 242 239 240 243 241 241 242 230 220 239 240 223 87 36 343 334 315 307 306 309 312 308 308 306 301 301 305 305 302 300 297 295 294 292 288 289 290